Volver al catálogo

NOAA 16 DEB

ActivoSSO
NORAD 41502·DEBRIS·🇺🇸 United States

Lanzado Sep 21, 2000 desde Vandenberg Space Force Base

Loading…

Próximos Pases (próximas 24 horas)

TLE

ActualizadoSource: Space-Track

Época: Sep 12, 2026, 02:00 UTC

1 41502U 00055MA  26255.08366831  .00001694  00000-0  74916-3 0  9997
2 41502  98.6469 304.6636 0009356 216.9683 143.0852 14.24513071543702

Sigue NOAA 16 DEB en tiempo real con AllMySat

Download on the App Store